Terminal Aerodrome Forecast
Issued by NWS Indianapolis, IN

Home | Current Version | Previous Version | Text Only | Print | Product List | Glossary On
Versions: 1 2 3 4 5 6 7 8 9 10 11 12 13 14 15 16 17 18 19 20 21 22 23 24 25 26 27 28
470
FTUS43 KIND 201406 AAA
TAFIND
TAF AMD
KIND 201406Z 2014/2118 12004KT 1/4SM FG VV002
     FM201500 13006KT 1/2SM FG VV004
     FM201600 13007KT 3SM BR OVC008
     FM201700 13007KT P6SM BKN015
     FM201800 14008KT P6SM SCT040
     FM211100 20006KT P6SM OVC030
     FM211300 21006KT 4SM -SHRA OVC015=

USA.gov is the U.S. government's official web portal to all federal, state and local government web resources and services.